• In Deutschland
  • Länderverzeichnis
  • Für 7 Tage
  • Wassertemperatur
  • Satellitenkarten
  • Wetterkarte
  • Widgets
  • user-avatar
    Anmelden

    Stündliche Wetter Weingarten

    Heute, 21 Juli, Samstag

    Zeit Temperatur Niederschläge Wind Luftdruck Luftfeuchtigkeit
    00:00 +18°C° 0,1 mm 2 m/S 720 mmHg 89%
    01:00 +17°C° 0 mm 2 m/S 720 mmHg 89%
    02:00 +17°C° 0,1 mm 2 m/S 720 mmHg 89%
    03:00 +17°C° 0,1 mm 2 m/S 720 mmHg 90%
    04:00 +17°C° 0,1 mm 2 m/S 719 mmHg 91%
    05:00 +17°C° 0,1 mm 2 m/S 720 mmHg 90%
    06:00 +18°C° 0,1 mm 2 m/S 720 mmHg 90%
    07:00 +18°C° 0 mm 2 m/S 720 mmHg 89%
    08:00 +19°C° 0,2 mm 2 m/S 720 mmHg 86%
    09:00 +20°C° 0,2 mm 2 m/S 720 mmHg 82%
    10:00 +21°C° 0,2 mm 2 m/S 720 mmHg 79%
    11:00 +23°C° 0,6 mm 2 m/S 720 mmHg 76%
    12:00 +23°C° 0,6 mm 2 m/S 720 mmHg 73%
    13:00 +24°C° 0,6 mm 2 m/S 720 mmHg 70%
    14:00 +24°C° 1 mm 2 m/S 720 mmHg 73%
    15:00 +24°C° 1 mm 2 m/S 720 mmHg 77%
    16:00 +24°C° 1 mm 2 m/S 720 mmHg 80%
    17:00 +23°C° 1,2 mm 2 m/S 720 mmHg 84%
    18:00 +21°C° 1,2 mm 2 m/S 720 mmHg 88%
    19:00 +20°C° 1,2 mm 2 m/S 720 mmHg 92%
    20:00 +19°C° 0,7 mm 2 m/S 720 mmHg 93%
    21:00 +18°C° 0,7 mm 2 m/S 720 mmHg 94%
    22:00 +18°C° 0,7 mm 1 m/S 720 mmHg 94%
    23:00 +18°C° 0,2 mm 1 m/S 720 mmHg 95%

    Morgen, 22 Juli, Sonntag

    Zeit Temperatur Niederschläge Wind Luftdruck Luftfeuchtigkeit
    00:00 +17°C° 0,2 mm 2 m/S 720 mmHg 95%
    01:00 +17°C° 0,2 mm 2 m/S 720 mmHg 95%
    02:00 +16°C° 0 mm 2 m/S 720 mmHg 95%
    03:00 +16°C° 0 mm 2 m/S 720 mmHg 96%
    04:00 +16°C° 0 mm 2 m/S 720 mmHg 96%
    05:00 +16°C° 0 mm 2 m/S 720 mmHg 95%
    06:00 +17°C° 0 mm 2 m/S 720 mmHg 95%
    07:00 +18°C° 0 mm 2 m/S 720 mmHg 94%
    08:00 +19°C° 0,1 mm 2 m/S 721 mmHg 89%
    09:00 +20°C° 0,1 mm 2 m/S 721 mmHg 84%
    10:00 +21°C° 0,1 mm 2 m/S 721 mmHg 79%
    11:00 +23°C° 0,4 mm 2 m/S 721 mmHg 77%
    12:00 +24°C° 0,4 mm 1 m/S 720 mmHg 74%
    13:00 +25°C° 0,4 mm 1 m/S 720 mmHg 72%
    14:00 +25°C° 1 mm 1 m/S 720 mmHg 75%
    15:00 +24°C° 1 mm 1 m/S 720 mmHg 77%
    16:00 +24°C° 1 mm 1 m/S 720 mmHg 79%
    17:00 +24°C° 1,4 mm 1 m/S 720 mmHg 83%
    18:00 +23°C° 1,4 mm 1 m/S 720 mmHg 86%
    19:00 +22°C° 1,4 mm 1 m/S 720 mmHg 89%
    20:00 +21°C° 1 mm 1 m/S 720 mmHg 91%
    21:00 +20°C° 1 mm 1 m/S 720 mmHg 92%
    22:00 +19°C° 1 mm 1 m/S 721 mmHg 93%
    23:00 +19°C° 0,1 mm 1 m/S 721 mmHg 94%

    übermorgen, 23 Juli, Montag

    Zeit Temperatur Niederschläge Wind Luftdruck Luftfeuchtigkeit
    00:00 +18°C° 0,1 mm 1 m/S 721 mmHg 94%
    01:00 +18°C° 0,1 mm 1 m/S 721 mmHg 95%
    02:00 +16°C° 0 mm 1 m/S 721 mmHg 95%
    03:00 +16°C° 0 mm 1 m/S 721 mmHg 96%
    04:00 +16°C° 0 mm 1 m/S 721 mmHg 96%
    05:00 +18°C° 0 mm 1 m/S 721 mmHg 96%
    06:00 +18°C° 0 mm 1 m/S 721 mmHg 95%
    07:00 +19°C° 0 mm 1 m/S 722 mmHg 95%
    08:00 +20°C° 0,2 mm 1 m/S 722 mmHg 91%
    09:00 +22°C° 0,2 mm 1 m/S 722 mmHg 86%
    10:00 +23°C° 0,2 mm 1 m/S 722 mmHg 82%
    11:00 +24°C° 0,7 mm 1 m/S 722 mmHg 78%
    12:00 +25°C° 0,7 mm 1 m/S 722 mmHg 75%
    13:00 +25°C° 0,7 mm 1 m/S 722 mmHg 71%
    14:00 +26°C° 0,5 mm 1 m/S 722 mmHg 71%
    15:00 +26°C° 0,5 mm 2 m/S 722 mmHg 71%
    16:00 +26°C° 0,5 mm 2 m/S 722 mmHg 71%
    17:00 +25°C° 0,3 mm 2 m/S 722 mmHg 76%
    18:00 +24°C° 0,3 mm 1 m/S 722 mmHg 81%
    19:00 +24°C° 0,3 mm 1 m/S 722 mmHg 86%
    20:00 +22°C° 0 mm 1 m/S 722 mmHg 88%
    21:00 +21°C° 0 mm 1 m/S 723 mmHg 90%
    22:00 +19°C° 0 mm 1 m/S 723 mmHg 92%
    23:00 +19°C° 0 mm 1 m/S 723 mmHg 93%

    24 Juli, Dienstag

    Zeit Temperatur Niederschläge Wind Luftdruck Luftfeuchtigkeit
    00:00 +18°C° 0 mm 1 m/S 722 mmHg 93%
    01:00 +18°C° 0 mm 1 m/S 722 mmHg 94%
    02:00 +16°C° 0 mm 1 m/S 722 mmHg 93%
    03:00 +16°C° 0 mm 1 m/S 722 mmHg 93%
    04:00 +16°C° 0 mm 1 m/S 721 mmHg 93%
    05:00 +18°C° 0 mm 1 m/S 721 mmHg 91%
    06:00 +19°C° 0 mm 1 m/S 721 mmHg 89%
    07:00 +20°C° 0 mm 1 m/S 721 mmHg 87%
    08:00 +22°C° 0 mm 1 m/S 721 mmHg 80%
    09:00 +24°C° 0 mm 2 m/S 721 mmHg 73%
    10:00 +26°C° 0 mm 2 m/S 721 mmHg 66%
    11:00 +27°C° 0 mm 2 m/S 721 mmHg 64%
    12:00 +28°C° 0 mm 2 m/S 721 mmHg 61%
    13:00 +29°C° 0 mm 3 m/S 721 mmHg 59%
    14:00 +29°C° 0 mm 3 m/S 721 mmHg 60%
    15:00 +29°C° 0 mm 3 m/S 720 mmHg 61%
    16:00 +29°C° 0 mm 3 m/S 720 mmHg 63%
    17:00 +27°C° 0,1 mm 2 m/S 720 mmHg 70%
    18:00 +26°C° 0,1 mm 2 m/S 720 mmHg 77%
    19:00 +25°C° 0,1 mm 1 m/S 720 mmHg 84%
    20:00 +24°C° 0,2 mm 1 m/S 721 mmHg 87%
    21:00 +22°C° 0,2 mm 1 m/S 721 mmHg 89%
    22:00 +21°C° 0,2 mm 1 m/S 721 mmHg 92%
    23:00 +20°C° 0,1 mm 1 m/S 721 mmHg 92%

    25 Juli, Mittwoch

    Zeit Temperatur Niederschläge Wind Luftdruck Luftfeuchtigkeit
    00:00 +20°C° 0,1 mm 1 m/S 721 mmHg 92%
    01:00 +20°C° 0,1 mm 1 m/S 721 mmHg 92%
    02:00 +19°C° 0 mm 1 m/S 721 mmHg 93%
    03:00 +19°C° 0 mm 1 m/S 721 mmHg 93%
    04:00 +19°C° 0 mm 1 m/S 721 mmHg 93%
    05:00 +18°C° 0 mm 0 m/S 721 mmHg 92%
    06:00 +19°C° 0 mm 0 m/S 721 mmHg 90%
    07:00 +20°C° 0 mm 0 m/S 722 mmHg 89%
    08:00 +21°C° 0,5 mm 0 m/S 722 mmHg 84%
    09:00 +25°C° 0,5 mm 1 m/S 722 mmHg 78%
    10:00 +27°C° 0,5 mm 1 m/S 722 mmHg 73%
    11:00 +27°C° 0,5 mm 1 m/S 722 mmHg 71%
    12:00 +28°C° 0,5 mm 1 m/S 721 mmHg 68%
    13:00 +28°C° 0,5 mm 1 m/S 721 mmHg 66%
    14:00 +28°C° 0,3 mm 1 m/S 721 mmHg 67%
    15:00 +28°C° 0,3 mm 1 m/S 721 mmHg 68%
    16:00 +28°C° 0,3 mm 1 m/S 721 mmHg 69%
    17:00 +27°C° 0,6 mm 1 m/S 721 mmHg 75%
    18:00 +26°C° 0,6 mm 1 m/S 721 mmHg 81%
    19:00 +25°C° 0,6 mm 1 m/S 721 mmHg 86%
    20:00 +23°C° 0,2 mm 1 m/S 721 mmHg 88%
    21:00 +22°C° 0,2 mm 1 m/S 722 mmHg 89%
    22:00 +21°C° 0,2 mm 1 m/S 722 mmHg 90%
    23:00 +21°C° 0 mm 1 m/S 722 mmHg 90%

    26 Juli, Donnerstag

    Zeit Temperatur Niederschläge Wind Luftdruck Luftfeuchtigkeit
    00:00 +20°C° 0 mm 1 m/S 722 mmHg 91%
    01:00 +20°C° 0 mm 1 m/S 722 mmHg 92%
    02:00 +19°C° 0 mm 1 m/S 722 mmHg 92%
    03:00 +19°C° 0 mm 1 m/S 722 mmHg 92%
    04:00 +19°C° 0 mm 1 m/S 722 mmHg 92%
    05:00 +20°C° 0 mm 1 m/S 722 mmHg 91%
    06:00 +19°C° 0 mm 0 m/S 722 mmHg 90%
    07:00 +20°C° 0 mm 0 m/S 722 mmHg 88%
    08:00 +23°C° 0 mm 1 m/S 722 mmHg 81%
    09:00 +25°C° 0 mm 1 m/S 722 mmHg 74%
    10:00 +27°C° 0 mm 2 m/S 722 mmHg 67%
    11:00 +28°C° 0 mm 2 m/S 722 mmHg 64%
    12:00 +28°C° 0 mm 3 m/S 722 mmHg 60%
    13:00 +29°C° 0 mm 3 m/S 722 mmHg 57%
    14:00 +29°C° 0 mm 3 m/S 722 mmHg 59%
    15:00 +29°C° 0 mm 3 m/S 722 mmHg 60%
    16:00 +29°C° 0 mm 3 m/S 721 mmHg 61%
    17:00 +28°C° 0 mm 3 m/S 722 mmHg 67%
    18:00 +27°C° 0 mm 3 m/S 722 mmHg 73%
    19:00 +25°C° 0 mm 2 m/S 722 mmHg 79%
    20:00 +24°C° 0 mm 2 m/S 722 mmHg 82%
    21:00 +21°C° 0 mm 2 m/S 722 mmHg 86%
    22:00 +21°C° 0 mm 1 m/S 722 mmHg 89%
    23:00 +20°C° 0 mm 1 m/S 722 mmHg 89%
    Mehr zeigen